Weather History for Russellville, AR

Change the Weather History Date:

Sunday, January 8, 2012

  Actual Average (KHOT) Record (KHOT)
Temperature  
Mean Temperature 49 °F -  
Max Temperature 52 °F 48 °F 78 °F (1969)
Min Temperature 46 °F 27 °F 8 °F (1976)
Degree Days  
Heating Degree Days 16    
Moisture  
Dew Point 32 °F    
Average Humidity 53    
Maximum Humidity 73    
Minimum Humidity 38    
Precipitation  
Precipitation 0.00 in - - ()
Sea Level Pressure  
Sea Level Pressure 30.14 in    
Wind  
Wind Speed 6 mph (NE)    
Max Wind Speed 9 mph    
Max Gust Speed -    
Visibility 10 miles    
Events Rain    
Averages and records for this station are not official NWS values.
T = Trace of Precipitation, MM = Missing Value Source: NWS Daily Summary

Daily Weather History Graph

Daily Weather History Graph

Search for Another Location

Airport:

Trip Planner

Search our weather history database for the weather conditions in past years. The results will help you decide how hot, cold, wet, or windy it might be!

Date:

Astronomy

Jan. 08, 2012 Rise Set
Actual Time 7:21 AM CST 5:16 PM CST
Civil Twilight 6:53 AM CST 5:44 PM CST
Nautical Twilight 6:22 AM CST 6:15 PM CST
Astronomical Twilight 5:51 AM CST 6:46 PM CST
Moon 4:59 PM CST (1/8) 6:40 AM CST (1/8)
Length of Visible Light 10h 50m
Length of Day
9h 54m
Full, 100% of the Moon is Illuminated
Jan 8
Full
Jan 9
Full
Jan 16
Last Quarter
Jan 23
New
Jan 30
First Quarter

Hourly Weather History & Observations

Time (CST) Temp. Windchill Dew Point Humidity Pressure Visibility Wind Dir Wind Speed Gust Speed Precip Events Conditions
12:53 AM 52.0 °F - 27.0 °F 38% 30.09 in 10.0 mi Variable 6.9 mph - N/A   Overcast
1:53 AM 52.0 °F - 28.0 °F 40% 30.10 in 10.0 mi ENE 5.8 mph - N/A   Overcast
2:53 AM 52.0 °F - 28.0 °F 40% 30.10 in 10.0 mi East 8.1 mph - N/A   Overcast
3:53 AM 51.1 °F - 28.0 °F 41% 30.11 in 10.0 mi ENE 4.6 mph - N/A   Overcast
4:53 AM 51.1 °F - 27.0 °F 39% 30.11 in 10.0 mi East 5.8 mph - N/A   Overcast
5:53 AM 51.1 °F - 27.0 °F 39% 30.10 in 10.0 mi East 9.2 mph - N/A   Overcast
6:05 AM 51.8 °F - 26.6 °F 38% 30.12 in 10.0 mi East 4.6 mph - N/A   Overcast
7:53 AM 50.0 °F - 27.0 °F 41% 30.13 in 10.0 mi East 5.8 mph - N/A   Overcast
8:53 AM 50.0 °F - 28.9 °F 44% 30.15 in 10.0 mi ENE 5.8 mph - 0.00 in Rain Light Rain
9:53 AM 51.1 °F - 28.0 °F 41% 30.16 in 10.0 mi East 8.1 mph - 0.00 in   Overcast
10:53 AM 51.1 °F - 30.0 °F 44% 30.17 in 10.0 mi ENE 6.9 mph - N/A   Overcast
11:53 AM 51.1 °F - 30.0 °F 44% 30.14 in 10.0 mi ENE 4.6 mph - N/A   Overcast
12:53 PM 50.0 °F - 32.0 °F 50% 30.13 in 10.0 mi NE 5.8 mph - 0.00 in   Overcast
1:53 PM 51.1 °F - 32.0 °F 48% 30.12 in 10.0 mi East 5.8 mph - 0.00 in   Overcast
2:53 PM 50.0 °F - 36.0 °F 59% 30.11 in 10.0 mi Calm Calm - N/A   Overcast
3:53 PM 48.9 °F - 37.9 °F 66% 30.13 in 10.0 mi North 4.6 mph - N/A   Overcast
4:53 PM 48.0 °F - 37.9 °F 68% 30.15 in 10.0 mi North 4.6 mph - N/A   Overcast
5:53 PM 46.9 °F - 37.9 °F 71% 30.16 in 10.0 mi NNE 5.8 mph - N/A   Overcast
6:53 PM 46.0 °F 44.8 °F 37.9 °F 73% 30.17 in 10.0 mi North 3.5 mph - N/A   Overcast
7:53 PM 46.0 °F 41.4 °F 37.0 °F 71% 30.17 in 10.0 mi North 9.2 mph - N/A   Overcast
8:53 PM 46.0 °F 43.9 °F 36.0 °F 68% 30.18 in 10.0 mi North 4.6 mph - N/A   Overcast
9:53 PM 46.0 °F 43.9 °F 36.0 °F 68% 30.18 in 10.0 mi North 4.6 mph - N/A   Overcast
10:53 PM 46.0 °F 43.9 °F 36.0 °F 68% 30.19 in 10.0 mi North 4.6 mph - N/A   Overcast
11:53 PM 46.9 °F - 35.1 °F 63% 30.19 in 10.0 mi Calm Calm - N/A   Overcast